Location: Unspecified
(0.0000°N, 0.0000°E)
Time: 05:06:17
(UTC+00:00)

RS-6 - Pass Details

Date: 04 October 2022
Orbit: 1636 x 1664 km, 83.0° (Epoch: 27 November)

Event Time Altitude Azimuth Distance (km) Brightness Sun altitude
Rises 05:18:51 0° 208° (SSW) 4,893 ? -7.5°
Reaches altitude 10° 05:22:28 10° 219° (SW) 3,900 ? -6.6°
Maximum altitude 05:29:59 27° 272° (W) 2,768 ? -4.7°
Drops below altitude 10° 05:37:31 10° 326° (NW) 3,874 ? -2.8°
Sets 05:41:09 0° 338° (NNW) 4,855 ? -1.9°
